�ϑ��N����,2023/9/27,,,
�ϑ���,�c���@�T��,,,
�ϑ��n�_,A9,,,
���x�v�ԍ�,A01,,,
,,,,
����,�C��,����,����,���l
9:30:00,-999,-999,-999,
9:31:00,-999,-999,-999,
9:32:00,-999,-999,-999,
9:33:00,-999,-999,-999,
9:34:00,-999,-999,-999,
9:35:00,-999,-999,-999,
9:36:00,-999,-999,-999,
9:37:00,-999,-999,-999,
9:38:00,-999,-999,-999,
9:39:00,-999,-999,-999,
9:40:00,-999,-999,-999,
9:41:00,-999,-999,-999,
9:42:00,-999,-999,-999,
9:43:00,-999,-999,-999,
9:44:00,-999,-999,-999,
9:45:00,-999,-999,-999,
9:46:00,-999,-999,-999,
9:47:00,-999,-999,-999,
9:48:00,-999,-999,-999,
9:49:00,-999,-999,-999,
9:50:00,-999,-999,-999,
9:51:00,-999,-999,-999,
9:52:00,-999,-999,-999,
9:53:00,-999,-999,-999,
9:54:00,-999,-999,-999,
9:55:00,-999,-999,-999,
9:56:00,33.5,4,-999,
9:57:00,33.9,4,-999,
9:58:00,33.8,5,-999,
9:59:00,33.8,5,-999,���A
10:00:00,33,5,-999,���A
10:01:00,32.8,5,-999,���A
10:02:00,32.5,5,-999,���Ȃ�
10:03:00,33,5,-999,���Ȃ�
10:04:00,33.1,5,-999,���A
10:05:00,33.2,5,-999,���Ȃ�
10:06:00,33.5,5,-999,���Ȃ�
10:07:00,33.6,5,-999,���Ȃ�
10:08:00,33.8,5,-999,���Ȃ�
10:09:00,34,5,-999,���Ȃ�
10:10:00,34.5,5,-999,���Ȃ�
10:11:00,35,5,-999,���Ȃ�
10:12:00,35.1,5,-999,���Ȃ�
10:13:00,35.1,5,-999,���Ȃ�
10:14:00,35.5,5,-999,���Ȃ�
10:15:00,35.2,5,-999,���Ȃ�
10:16:00,34.7,5,-999,���A
10:17:00,34,5,-999,���A
10:18:00,33.1,5,-999,���A
10:19:00,32.6,5,-999,���A
10:20:00,33.2,5,-999,���Ȃ�
10:21:00,34,5,-999,���Ȃ�
10:22:00,34.2,5,-999,���Ȃ�
10:23:00,33.9,5,-999,���A
10:24:00,33.3,5,-999,���A
10:25:00,33.6,5,-999,���Ȃ�
10:26:00,34,5,-999,���Ȃ�
10:27:00,34.2,5,-999,���A
10:28:00,34,5,-999,���A
10:29:00,33.8,5,-999,���A
10:30:00,33.7,5,-999,���Ȃ�
10:31:00,34.1,5,-999,���Ȃ�
10:32:00,34,5,-999,���A
10:33:00,33.9,5,-999,���A
10:34:00,33.3,5,-999,���A
10:35:00,33.5,5,-999,
10:36:00,33.5,5,-999,���Ȃ�
10:37:00,33.1,5,-999,���A
10:38:00,32.8,5,-999,���A
10:39:00,32.9,5,-999,���Ȃ�
10:40:00,32.7,5,-999,���A
10:41:00,32.6,5,-999,���A
10:42:00,32.9,5,-999,���Ȃ�
10:43:00,32.9,5,-999,���Ȃ�
10:44:00,32.9,5,-999,���Ȃ�
10:45:00,33.2,5,-999,���Ȃ�
10:46:00,33.8,5,-999,���Ȃ�
10:47:00,33.1,5,-999,���A
10:48:00,33,5,-999,���A
10:49:00,33,5,-999,���A
10:50:00,32.6,5,-999,���A
10:51:00,32.8,5,-999,���A
10:52:00,32.9,5,-999,���A
10:53:00,32.8,5,-999,���A
10:54:00,32.7,5,-999,
10:55:00,33.1,5,-999,���Ȃ�
10:56:00,33.1,5,-999,���A
10:57:00,33.4,5,-999,���Ȃ�
10:58:00,33.5,5,-999,
10:59:00,32.9,5,-999,���A
11:00:00,32.6,5,-999,���A
11:01:00,32.1,5,-999,���A
11:02:00,32.2,5,-999,���A
11:03:00,32.1,5,-999,���A
11:04:00,31.9,5,-999,���A
11:05:00,32.4,5,-999,���Ȃ�
11:06:00,32.7,5,-999,
11:07:00,32.4,5,-999,���A
11:08:00,32.8,5,-999,���A
11:09:00,32.2,5,-999,���A
11:10:00,31.9,5,-999,���A
11:11:00,32,5,-999,���A
11:12:00,31.8,5,-999,���A
11:13:00,31.9,5,-999,���A
11:14:00,31.8,5,-999,���A
11:15:00,32,5,-999,���A
11:16:00,32.1,5,-999,���A
11:17:00,31.9,5,-999,���A
11:18:00,31.8,5,-999,���A
11:19:00,31.7,5,-999,���A
11:20:00,31.6,5,-999,���A
11:21:00,31.8,5,-999,���A
11:22:00,31.9,5,-999,���A
11:23:00,31.9,5,-999,���A
11:24:00,32.5,5,-999,���Ȃ�
11:25:00,32.9,5,-999,���Ȃ�
11:26:00,33.2,5,-999,���Ȃ�
11:27:00,33.3,5,-999,���Ȃ�
11:28:00,33.7,5,-999,���Ȃ�
11:29:00,34.4,5,-999,���Ȃ�
11:30:00,34.7,5,-999,���Ȃ�
